Flag for U.S.A. Weather past 2 weeks in Oceanside, California, U.S.A.

Now
62 °F

Clear.


Feels Like: 62 °F
Forecast: 64 / 83 °F
Wind: No wind

Location: Oceanside Weather Reporting Station

Current Time: Jul 24, 2014 at 7:37:12 AM

Latest Report: Jul 24, 2014 at 6:52 AM


Visibility: 10 mi

Pressure: 29.85 "Hg

Humidity: 86%

Dew point: 58 °F

Location of OceansideLocation

Historic Weather in Oceanside — Graph

°F

Oceanside temperature yesterday

Maximum temperature yesterday: 78 °F (at 3:52 PM)
Minimum temperature yesterday: 57 °F (at 4:52 AM)
Average temperature yesterday: 69 °F

Past Weeks' High & Low Weather Summary

 TemperatureHumidityPressure
High78 °F (Jul 21, 1:52 PM)97% (Jul 21, 3:52 AM)30.05 "Hg (Jul 21, 3:52 AM)
Low56 °F (Jul 21, 5:52 AM)48% (Jul 17, 11:52 AM)29.84 "Hg (Jul 24, 3:52 AM)
Average68 °F77%29.97 "Hg
* Reported Jul 9 5:52 AM — Jul 24 5:52 AM, Oceanside, Weather by CustomWeather, © 2014

Note: Actual official high and low records may vary slightly from our data, if they occured in-between our weather recording intervals... More about our weather records

Advertising

Oceanside weather history for previous 24 hours

 ConditionsComfort  
Time TempWeatherWind HumidityBarometerVisibility
5:52 AM
Jul 24
58 °FClear.No wind93%29.85 "Hg10 mi
4:52 AM60 °FClear.No wind90%29.85 "Hg10 mi
3:52 AM60 °FClear.No wind93%29.84 "Hg10 mi
2:52 AM62 °FClear.No wind90%29.85 "Hg9 mi
1:52 AM61 °FClear.No wind93%29.87 "Hg9 mi
12:52 AM63 °FClear.No wind90%29.89 "Hg10 mi
11:52 PM
Jul 23
63 °FClear.No wind90%29.90 "Hg10 mi
10:52 PM65 °FClear.No wind85%29.90 "Hg10 mi
9:52 PM69 °FClear.No wind81%29.89 "Hg10 mi
8:52 PM71 °FSunny.5 mph76%29.88 "Hg10 mi
7:52 PM72 °FSunny.5 mph68%29.88 "Hg10 mi
6:52 PM74 °FSunny.7 mph67%29.87 "Hg10 mi
5:52 PM75 °FSunny.12 mph66%29.88 "Hg10 mi
4:52 PM77 °FSunny.8 mph58%29.89 "Hg10 mi
3:52 PM78 °FSunny.9 mph58%29.91 "Hg10 mi
2:52 PM77 °FSunny.12 mph66%29.93 "Hg10 mi
1:52 PM77 °FSunny.9 mph64%29.95 "Hg10 mi
12:52 PM77 °FSunny.12 mph64%29.96 "Hg10 mi
11:52 AM76 °FSunny.13 mph64%29.98 "Hg10 mi
10:52 AM76 °FSunny.9 mph58%29.98 "Hg10 mi
9:52 AM76 °FSunny.7 mph54%29.98 "Hg10 mi
8:52 AM72 °FSunny.No wind64%30.00 "Hg10 mi
7:52 AM67 °FSunny.No wind73%30.00 "Hg10 mi
Weather by CustomWeather, © 2014

See weather overviewHow to use our weather pages